Time,TemperatureF,DewpointF,PressureIn,WindDirection,WindDirectionDegrees,WindSpeedMPH,WindSpeedGustMPH,Humidity,HourlyPrecipIn,Conditions,Clouds,dailyrainin,SoftwareType,DateUTC
2013-09-22 00:02:00,51.0,45.4,29.89,South,180,0.0,0.0,81,0.00,,,0.00,WUHU216HW,2013-09-22 05:02:00,
2013-09-22 00:07:00,51.0,45.7,29.89,South,180,0.0,0.0,82,0.00,,,0.00,WUHU216HW,2013-09-22 05:07:00,
2013-09-22 00:12:00,51.0,45.7,29.89,SSE,158,0.0,0.0,82,0.00,,,0.00,WUHU216HW,2013-09-22 05:12:00,
2013-09-22 00:17:00,51.4,46.1,29.89,SSE,158,0.0,0.0,82,0.00,,,0.00,WUHU216HW,2013-09-22 05:17:00,
2013-09-22 00:22:00,51.4,46.1,29.89,SSE,158,0.0,0.0,82,0.00,,,0.00,WUHU216HW,2013-09-22 05:22:00,
2013-09-22 00:27:00,51.4,45.8,29.89,SSE,158,0.0,0.0,81,0.00,,,0.00,WUHU216HW,2013-09-22 05:27:00,
2013-09-22 00:32:00,51.0,45.4,29.89,SSE,158,0.0,0.0,81,0.00,,,0.00,WUHU216HW,2013-09-22 05:32:00,
2013-09-22 00:37:00,50.9,45.2,29.89,SSW,203,0.6,1.1,81,0.00,,,0.00,WUHU216HW,2013-09-22 05:37:00,
2013-09-22 00:42:00,50.7,45.0,29.89,SSW,203,0.0,1.5,81,0.00,,,0.00,WUHU216HW,2013-09-22 05:42:00,
2013-09-22 00:47:00,50.7,45.0,29.89,SSW,203,0.0,1.5,81,0.00,,,0.00,WUHU216HW,2013-09-22 05:47:00,
2013-09-22 00:52:00,50.5,44.9,29.89,SSW,203,1.3,1.3,81,0.00,,,0.00,WUHU216HW,2013-09-22 05:52:00,
2013-09-22 00:57:00,50.1,44.8,29.89,SSW,203,0.0,1.3,82,0.00,,,0.00,WUHU216HW,2013-09-22 05:57:00,
2013-09-22 01:03:00,50.1,44.8,29.90,SSW,203,0.0,0.0,82,0.00,,,0.00,WUHU216HW,2013-09-22 06:03:00,
2013-09-22 01:08:00,50.1,44.8,29.90,ENE,68,0.0,0.0,82,0.00,,,0.00,WUHU216HW,2013-09-22 06:08:00,
2013-09-22 01:13:00,50.1,45.1,29.89,NE,45,0.0,0.0,83,0.00,,,0.00,WUHU216HW,2013-09-22 06:13:00,
2013-09-22 01:18:00,50.1,45.4,29.90,NE,45,0.0,0.0,84,0.00,,,0.00,WUHU216HW,2013-09-22 06:18:00,
2013-09-22 01:23:00,50.0,45.2,29.90,NE,45,0.0,0.0,84,0.00,,,0.00,WUHU216HW,2013-09-22 06:23:00,
2013-09-22 01:28:00,49.8,45.1,29.90,NE,45,0.0,0.0,84,0.00,,,0.00,WUHU216HW,2013-09-22 06:28:00,
2013-09-22 01:33:00,49.8,45.1,29.90,NE,45,0.0,0.0,84,0.00,,,0.00,WUHU216HW,2013-09-22 06:33:00,
2013-09-22 01:39:00,49.4,44.7,29.90,NE,45,0.0,0.0,84,0.00,,,0.00,WUHU216HW,2013-09-22 06:39:00,
2013-09-22 01:44:00,49.2,44.5,29.90,NE,45,0.0,0.0,84,0.00,,,0.00,WUHU216HW,2013-09-22 06:44:00,
2013-09-22 01:49:00,49.1,44.4,29.90,NE,45,0.0,0.0,84,0.00,,,0.00,WUHU216HW,2013-09-22 06:49:00,
2013-09-22 01:54:00,48.9,44.2,29.89,NE,45,0.0,0.0,84,0.00,,,0.00,WUHU216HW,2013-09-22 06:54:00,
2013-09-22 01:59:00,48.7,44.0,29.90,NE,45,0.0,0.0,84,0.00,,,0.00,WUHU216HW,2013-09-22 06:59:00,
2013-09-22 02:04:00,48.7,44.0,29.90,NE,45,0.0,0.0,84,0.00,,,0.00,WUHU216HW,2013-09-22 07:04:00,
2013-09-22 02:09:00,48.7,44.3,29.90,NE,45,0.0,0.0,85,0.00,,,0.00,WUHU216HW,2013-09-22 07:09:00,
2013-09-22 02:14:00,48.5,44.2,29.90,NE,45,0.0,0.0,85,0.00,,,0.00,WUHU216HW,2013-09-22 07:14:00,
2013-09-22 02:19:00,48.5,44.2,29.90,NE,45,0.0,0.0,85,0.00,,,0.00,WUHU216HW,2013-09-22 07:19:00,
2013-09-22 02:24:00,48.5,44.5,29.90,NE,45,0.0,0.0,86,0.00,,,0.00,WUHU216HW,2013-09-22 07:24:00,
2013-09-22 02:29:00,48.3,44.3,29.90,NE,45,0.0,0.0,86,0.00,,,0.00,WUHU216HW,2013-09-22 07:29:00,
2013-09-22 02:34:00,48.3,44.3,29.90,NE,45,0.0,0.0,86,0.00,,,0.00,WUHU216HW,2013-09-22 07:34:00,
2013-09-22 02:39:00,48.3,44.3,29.90,NE,45,0.0,0.0,86,0.00,,,0.00,WUHU216HW,2013-09-22 07:39:00,
2013-09-22 02:44:00,48.3,44.3,29.91,NE,45,0.0,0.0,86,0.00,,,0.00,WUHU216HW,2013-09-22 07:44:00,
2013-09-22 02:49:00,48.2,44.2,29.91,NE,45,0.0,0.0,86,0.00,,,0.00,WUHU216HW,2013-09-22 07:49:00,
2013-09-22 02:54:00,48.0,44.0,29.90,NE,45,0.0,0.0,86,0.00,,,0.00,WUHU216HW,2013-09-22 07:54:00,
2013-09-22 03:00:00,48.0,44.0,29.90,NE,45,0.0,0.0,86,0.00,,,0.00,WUHU216HW,2013-09-22 08:00:00,
2013-09-22 03:05:00,47.8,44.1,29.90,NE,45,0.0,0.0,87,0.00,,,0.00,WUHU216HW,2013-09-22 08:05:00,
2013-09-22 03:10:00,47.8,44.1,29.90,NE,45,0.0,0.0,87,0.00,,,0.00,WUHU216HW,2013-09-22 08:10:00,
2013-09-22 03:15:00,48.0,44.3,29.90,NE,45,0.0,0.0,87,0.00,,,0.00,WUHU216HW,2013-09-22 08:15:00,
2013-09-22 03:20:00,48.0,44.3,29.90,NE,45,0.0,0.0,87,0.00,,,0.00,WUHU216HW,2013-09-22 08:20:00,
2013-09-22 03:25:00,47.8,44.1,29.90,NE,45,0.0,0.0,87,0.00,,,0.00,WUHU216HW,2013-09-22 08:25:00,
2013-09-22 03:30:00,47.6,43.9,29.90,NE,45,0.0,0.0,87,0.00,,,0.00,WUHU216HW,2013-09-22 08:30:00,
2013-09-22 03:35:00,47.4,43.8,29.90,NE,45,0.0,0.0,87,0.00,,,0.00,WUHU216HW,2013-09-22 08:35:00,
2013-09-22 03:41:00,47.4,43.8,29.90,NE,45,0.0,0.0,87,0.00,,,0.00,WUHU216HW,2013-09-22 08:41:00,
2013-09-22 03:46:00,47.6,43.9,29.90,NE,45,0.0,0.0,87,0.00,,,0.00,WUHU216HW,2013-09-22 08:46:00,
2013-09-22 03:51:00,47.8,44.1,29.90,NE,45,0.0,0.0,87,0.00,,,0.00,WUHU216HW,2013-09-22 08:51:00,
2013-09-22 03:56:00,47.6,43.9,29.91,NE,45,0.0,0.0,87,0.00,,,0.00,WUHU216HW,2013-09-22 08:56:00,
2013-09-22 04:01:00,47.6,43.9,29.90,NE,45,0.0,0.0,87,0.00,,,0.00,WUHU216HW,2013-09-22 09:01:00,
2013-09-22 04:06:00,47.4,43.8,29.90,NE,45,0.0,0.0,87,0.00,,,0.00,WUHU216HW,2013-09-22 09:06:00,
2013-09-22 04:11:00,47.3,43.6,29.91,NE,45,0.0,0.0,87,0.00,,,0.00,WUHU216HW,2013-09-22 09:11:00,
2013-09-22 04:16:00,47.1,43.4,29.91,NE,45,0.0,0.0,87,0.00,,,0.00,WUHU216HW,2013-09-22 09:16:00,
2013-09-22 04:21:00,47.1,43.4,29.91,NE,45,0.0,0.0,87,0.00,,,0.00,WUHU216HW,2013-09-22 09:21:00,
2013-09-22 04:26:00,47.1,43.4,29.91,NE,45,0.0,0.0,87,0.00,,,0.00,WUHU216HW,2013-09-22 09:26:00,
2013-09-22 04:31:00,47.1,43.4,29.91,ENE,68,0.0,0.0,87,0.00,,,0.00,WUHU216HW,2013-09-22 09:31:00,
2013-09-22 04:36:00,47.1,43.4,29.91,SE,135,0.0,0.0,87,0.00,,,0.00,WUHU216HW,2013-09-22 09:36:00,
2013-09-22 04:41:00,47.1,43.4,29.91,SE,135,0.0,0.0,87,0.00,,,0.00,WUHU216HW,2013-09-22 09:41:00,
2013-09-22 04:46:00,47.1,43.7,29.91,SE,135,0.0,0.0,88,0.00,,,0.00,WUHU216HW,2013-09-22 09:46:00,
2013-09-22 04:51:00,47.1,43.7,29.91,SE,135,0.0,0.0,88,0.00,,,0.00,WUHU216HW,2013-09-22 09:51:00,
2013-09-22 04:57:00,47.3,43.9,29.90,SE,135,0.0,0.0,88,0.00,,,0.00,WUHU216HW,2013-09-22 09:57:00,
2013-09-22 05:02:00,47.3,43.9,29.91,SE,135,0.0,0.0,88,0.00,,,0.00,WUHU216HW,2013-09-22 10:02:00,
2013-09-22 05:07:00,47.4,44.1,29.91,SE,135,0.0,0.0,88,0.00,,,0.00,WUHU216HW,2013-09-22 10:07:00,
2013-09-22 05:12:00,47.4,44.1,29.91,SE,135,0.0,0.0,88,0.00,,,0.00,WUHU216HW,2013-09-22 10:12:00,
2013-09-22 05:17:00,47.4,44.1,29.91,SE,135,0.0,0.0,88,0.00,,,0.00,WUHU216HW,2013-09-22 10:17:00,
2013-09-22 05:22:00,47.4,44.1,29.91,SE,135,0.0,0.0,88,0.00,,,0.00,WUHU216HW,2013-09-22 10:22:00,
2013-09-22 05:27:00,47.3,43.9,29.91,SE,135,0.0,0.0,88,0.00,,,0.00,WUHU216HW,2013-09-22 10:27:00,
2013-09-22 05:32:00,47.3,43.9,29.91,SE,135,0.0,0.0,88,0.00,,,0.00,WUHU216HW,2013-09-22 10:32:00,
2013-09-22 05:37:00,47.3,43.9,29.91,SE,135,0.0,0.0,88,0.00,,,0.00,WUHU216HW,2013-09-22 10:37:00,
2013-09-22 05:42:00,47.3,43.9,29.91,SE,135,0.0,0.0,88,0.00,,,0.00,WUHU216HW,2013-09-22 10:42:00,
2013-09-22 05:47:00,47.4,44.1,29.91,East,90,0.0,0.0,88,0.00,,,0.00,WUHU216HW,2013-09-22 10:47:00,
2013-09-22 05:52:00,47.6,44.3,29.91,ENE,68,0.0,0.0,88,0.00,,,0.00,WUHU216HW,2013-09-22 10:52:00,
2013-09-22 05:57:00,47.8,44.4,29.91,ENE,68,0.0,0.0,88,0.00,,,0.00,WUHU216HW,2013-09-22 10:57:00,
2013-09-22 06:02:00,48.0,44.6,29.91,ENE,68,0.0,0.0,88,0.00,,,0.00,WUHU216HW,2013-09-22 11:02:00,
2013-09-22 06:07:00,47.8,44.4,29.92,ENE,68,0.0,0.0,88,0.00,,,0.00,WUHU216HW,2013-09-22 11:07:00,
2013-09-22 06:12:00,47.6,44.3,29.92,ENE,68,0.0,0.0,88,0.00,,,0.00,WUHU216HW,2013-09-22 11:12:00,
2013-09-22 06:17:00,47.4,44.1,29.92,ENE,68,0.0,0.0,88,0.00,,,0.00,WUHU216HW,2013-09-22 11:17:00,
2013-09-22 06:22:00,47.3,43.9,29.92,ENE,68,0.0,0.0,88,0.00,,,0.00,WUHU216HW,2013-09-22 11:22:00,
2013-09-22 06:27:00,47.1,43.7,29.92,ENE,68,0.0,0.0,88,0.00,,,0.00,WUHU216HW,2013-09-22 11:27:00,
2013-09-22 06:32:00,47.1,43.7,29.92,ENE,68,0.0,0.0,88,0.00,,,0.00,WUHU216HW,2013-09-22 11:32:00,
2013-09-22 06:37:00,46.9,43.6,29.93,ENE,68,0.0,0.0,88,0.00,,,0.00,WUHU216HW,2013-09-22 11:37:00,
2013-09-22 06:42:00,46.9,43.6,29.92,ENE,68,0.0,0.0,88,0.00,,,0.00,WUHU216HW,2013-09-22 11:42:00,
2013-09-22 06:47:00,46.7,43.4,29.93,ENE,68,0.0,0.0,88,0.00,,,0.00,WUHU216HW,2013-09-22 11:47:00,
2013-09-22 06:53:00,46.5,43.2,29.93,ENE,68,0.0,0.0,88,0.00,,,0.00,WUHU216HW,2013-09-22 11:53:00,
2013-09-22 06:58:00,46.5,43.2,29.93,ENE,68,0.0,0.0,88,0.00,,,0.00,WUHU216HW,2013-09-22 11:58:00,
2013-09-22 07:03:00,46.2,42.9,29.93,ENE,68,0.0,0.0,88,0.00,,,0.00,WUHU216HW,2013-09-22 12:03:00,
2013-09-22 07:08:00,46.2,42.9,29.93,ENE,68,0.0,0.0,88,0.00,,,0.00,WUHU216HW,2013-09-22 12:08:00,
2013-09-22 07:13:00,46.2,42.9,29.93,ENE,68,0.0,0.0,88,0.00,,,0.00,WUHU216HW,2013-09-22 12:13:00,
2013-09-22 07:18:00,46.2,42.9,29.93,East,90,0.0,0.0,88,0.00,,,0.00,WUHU216HW,2013-09-22 12:18:00,
2013-09-22 07:23:00,46.2,42.9,29.94,ESE,113,0.0,0.0,88,0.00,,,0.00,WUHU216HW,2013-09-22 12:23:00,
2013-09-22 07:28:00,46.2,42.9,29.93,SE,135,0.0,0.0,88,0.00,,,0.00,WUHU216HW,2013-09-22 12:28:00,
2013-09-22 07:34:00,46.4,43.0,29.94,SE,135,0.0,0.0,88,0.00,,,0.00,WUHU216HW,2013-09-22 12:34:00,
2013-09-22 07:39:00,46.5,43.2,29.94,SE,135,0.0,0.0,88,0.00,,,0.00,WUHU216HW,2013-09-22 12:39:00,
2013-09-22 07:44:00,46.5,43.2,29.95,South,180,0.0,0.0,88,0.00,,,0.00,WUHU216HW,2013-09-22 12:44:00,
2013-09-22 07:49:00,46.7,43.7,29.94,South,180,0.0,0.0,89,0.00,,,0.00,WUHU216HW,2013-09-22 12:49:00,
2013-09-22 07:54:00,46.9,43.9,29.94,South,180,0.0,0.0,89,0.00,,,0.00,WUHU216HW,2013-09-22 12:54:00,
2013-09-22 07:59:00,47.1,44.0,29.94,South,180,0.0,0.0,89,0.00,,,0.00,WUHU216HW,2013-09-22 12:59:00,
2013-09-22 08:04:00,47.4,44.4,29.94,South,180,0.0,0.0,89,0.00,,,0.00,WUHU216HW,2013-09-22 13:04:00,
2013-09-22 08:09:00,47.8,44.8,29.94,South,180,0.0,0.0,89,0.00,,,0.00,WUHU216HW,2013-09-22 13:09:00,
2013-09-22 08:14:00,48.0,44.9,29.94,South,180,0.0,0.0,89,0.00,,,0.00,WUHU216HW,2013-09-22 13:14:00,
2013-09-22 08:19:00,48.5,45.3,29.95,South,180,1.7,1.7,89,0.00,,,0.00,WUHU216HW,2013-09-22 13:19:00,
2013-09-22 08:24:00,48.9,46.1,29.94,South,180,0.0,1.7,90,0.00,,,0.00,WUHU216HW,2013-09-22 13:24:00,
2013-09-22 08:29:00,49.2,46.4,29.95,SSE,158,1.1,1.7,90,0.00,,,0.00,WUHU216HW,2013-09-22 13:29:00,
2013-09-22 08:34:00,50.0,47.1,29.95,SSW,203,1.5,1.5,90,0.00,,,0.00,WUHU216HW,2013-09-22 13:34:00,
2013-09-22 08:39:00,50.5,47.6,29.95,South,180,2.4,2.4,90,0.00,,,0.00,WUHU216HW,2013-09-22 13:39:00,
2013-09-22 08:44:00,51.0,48.2,29.95,SSW,203,1.3,2.4,90,0.00,,,0.00,WUHU216HW,2013-09-22 13:44:00,
2013-09-22 08:49:00,51.6,48.4,29.95,SSW,203,1.7,2.4,89,0.00,,,0.00,WUHU216HW,2013-09-22 13:49:00,
2013-09-22 08:54:00,52.3,49.1,29.96,SSE,158,3.5,3.5,89,0.00,,,0.00,WUHU216HW,2013-09-22 13:54:00,
2013-09-22 08:59:00,52.7,49.5,29.95,SSE,158,0.0,3.5,89,0.00,,,0.00,WUHU216HW,2013-09-22 13:59:00,
2013-09-22 09:04:00,53.0,49.5,29.95,SSE,158,1.3,3.5,88,0.00,,,0.00,WUHU216HW,2013-09-22 14:04:00,
2013-09-22 09:09:00,53.7,49.9,29.95,NE,45,0.0,3.1,87,0.00,,,0.00,WUHU216HW,2013-09-22 14:09:00,
2013-09-22 09:14:00,54.3,50.4,29.95,NNW,338,0.0,1.5,87,0.00,,,0.00,WUHU216HW,2013-09-22 14:14:00,
2013-09-22 09:19:00,54.8,50.7,29.95,SSW,203,0.0,1.1,86,0.00,,,0.00,WUHU216HW,2013-09-22 14:19:00,
2013-09-22 09:24:00,55.4,51.2,29.96,East,90,0.0,0.0,86,0.00,,,0.00,WUHU216HW,2013-09-22 14:24:00,
2013-09-22 09:29:00,56.1,51.6,29.95,South,180,0.0,0.0,85,0.00,,,0.00,WUHU216HW,2013-09-22 14:29:00,
2013-09-22 09:34:00,56.4,51.9,29.96,SSE,158,0.0,1.7,85,0.00,,,0.00,WUHU216HW,2013-09-22 14:34:00,
2013-09-22 09:39:00,57.0,52.1,29.96,SSE,158,4.2,4.2,84,0.00,,,0.00,WUHU216HW,2013-09-22 14:39:00,
2013-09-22 09:44:00,57.5,52.4,29.96,SSW,203,3.1,4.2,82,0.00,,,0.00,WUHU216HW,2013-09-22 14:44:00,
2013-09-22 09:50:00,58.2,52.8,29.96,South,180,2.2,3.8,82,0.00,,,0.00,WUHU216HW,2013-09-22 14:50:00,
2013-09-22 09:55:00,58.6,52.8,29.96,South,180,2.6,4.2,81,0.00,,,0.00,WUHU216HW,2013-09-22 14:55:00,
2013-09-22 10:00:00,58.8,52.7,29.96,ESE,113,0.0,4.4,80,0.00,,,0.00,WUHU216HW,2013-09-22 15:00:00,
2013-09-22 10:05:00,59.3,52.8,29.95,SSE,158,1.3,5.3,79,0.00,,,0.00,WUHU216HW,2013-09-22 15:05:00,
2013-09-22 10:10:00,59.9,53.4,29.95,SSE,158,3.3,5.3,79,0.00,,,0.00,WUHU216HW,2013-09-22 15:10:00,
2013-09-22 10:15:00,60.2,53.4,29.95,South,180,6.0,6.0,78,0.00,,,0.00,WUHU216HW,2013-09-22 15:15:00,
2013-09-22 10:20:00,60.6,53.4,29.95,SSE,158,0.0,6.0,77,0.00,,,0.00,WUHU216HW,2013-09-22 15:20:00,
2013-09-22 10:25:00,61.3,53.7,29.95,South,180,3.5,5.1,76,0.00,,,0.00,WUHU216HW,2013-09-22 15:25:00,
2013-09-22 10:31:00,61.7,53.6,29.95,South,180,2.4,5.1,75,0.00,,,0.00,WUHU216HW,2013-09-22 15:31:00,
2013-09-22 10:36:00,62.0,54.0,29.95,SSE,158,4.6,4.6,75,0.00,,,0.00,WUHU216HW,2013-09-22 15:36:00,
2013-09-22 10:41:00,62.9,54.5,29.95,SSE,158,4.2,6.9,74,0.00,,,0.00,WUHU216HW,2013-09-22 15:41:00,
2013-09-22 10:46:00,63.5,54.6,29.95,South,180,5.1,6.9,73,0.00,,,0.00,WUHU216HW,2013-09-22 15:46:00,
2013-09-22 10:51:00,64.0,54.8,29.95,SSE,158,5.5,6.4,72,0.00,,,0.00,WUHU216HW,2013-09-22 15:51:00,
2013-09-22 10:56:00,64.9,55.3,29.95,South,180,1.7,5.5,71,0.00,,,0.00,WUHU216HW,2013-09-22 15:56:00,
2013-09-22 11:01:00,66.0,56.3,29.95,ESE,113,0.0,4.2,71,0.00,,,0.00,WUHU216HW,2013-09-22 16:01:00,
2013-09-22 11:06:00,66.7,57.0,29.95,SSW,203,1.5,1.7,71,0.00,,,0.00,WUHU216HW,2013-09-22 16:06:00,
2013-09-22 11:11:00,68.1,57.6,29.94,South,180,2.9,2.9,69,0.00,,,0.00,WUHU216HW,2013-09-22 16:11:00,
2013-09-22 11:16:00,68.7,57.2,29.94,ESE,113,0.0,2.9,67,0.00,,,0.00,WUHU216HW,2013-09-22 16:16:00,
2013-09-22 11:21:00,69.4,57.5,29.94,South,180,3.1,6.2,66,0.00,,,0.00,WUHU216HW,2013-09-22 16:21:00,
2013-09-22 11:26:00,70.3,57.9,29.94,SE,135,6.9,6.9,65,0.00,,,0.00,WUHU216HW,2013-09-22 16:26:00,
2013-09-22 11:31:00,70.7,57.0,29.94,East,90,1.5,6.9,62,0.00,,,0.00,WUHU216HW,2013-09-22 16:31:00,
2013-09-22 11:36:00,71.2,57.1,29.94,SSE,158,4.0,6.9,61,0.00,,,0.00,WUHU216HW,2013-09-22 16:36:00,
2013-09-22 11:41:00,71.7,57.1,29.94,SSE,158,2.2,4.0,60,0.00,,,0.00,WUHU216HW,2013-09-22 16:41:00,
2013-09-22 11:46:00,72.5,57.3,29.93,SSE,158,0.0,2.2,59,0.00,,,0.00,WUHU216HW,2013-09-22 16:46:00,
2013-09-22 11:51:00,73.0,57.3,29.93,SE,135,5.1,5.1,58,0.00,,,0.00,WUHU216HW,2013-09-22 16:51:00,
2013-09-22 11:56:00,73.2,55.9,29.93,North,0,0.0,10.7,55,0.00,,,0.00,WUHU216HW,2013-09-22 16:56:00,
2013-09-22 12:01:00,73.2,55.9,29.93,SE,135,0.0,10.7,55,0.00,,,0.00,WUHU216HW,2013-09-22 17:01:00,
2013-09-22 12:06:00,73.7,55.9,29.93,SE,135,1.5,106.0,54,0.00,,,0.00,WUHU216HW,2013-09-22 17:06:00,
2013-09-22 12:11:00,74.3,56.5,29.93,East,90,4.0,106.0,54,0.00,,,0.00,WUHU216HW,2013-09-22 17:11:00,
2013-09-22 12:16:00,74.4,56.5,29.92,SW,225,0.0,4.0,53,0.00,,,0.00,WUHU216HW,2013-09-22 17:16:00,
2013-09-22 12:21:00,75.0,56.2,29.93,South,180,4.0,4.0,52,0.00,,,0.00,WUHU216HW,2013-09-22 17:21:00,
2013-09-22 12:26:00,75.3,56.0,29.93,SSE,158,1.3,4.0,51,0.00,,,0.00,WUHU216HW,2013-09-22 17:26:00,
2013-09-22 12:31:00,75.7,56.3,29.93,SSW,203,7.1,7.6,51,0.00,,,0.00,WUHU216HW,2013-09-22 17:31:00,
2013-09-22 12:36:00,75.9,56.0,29.93,SSE,158,3.8,9.8,50,0.00,,,0.00,WUHU216HW,2013-09-22 17:36:00,
2013-09-22 12:41:00,75.9,56.0,29.92,South,180,0.0,9.8,50,0.00,,,0.00,WUHU216HW,2013-09-22 17:41:00,
2013-09-22 12:46:00,76.4,55.9,29.92,South,180,1.1,5.1,49,0.00,,,0.00,WUHU216HW,2013-09-22 17:46:00,
2013-09-22 12:51:00,76.4,55.3,29.92,South,180,4.0,5.1,48,0.00,,,0.00,WUHU216HW,2013-09-22 17:51:00,
2013-09-22 12:57:00,76.6,55.4,29.92,East,90,0.0,4.6,48,0.00,,,0.00,WUHU216HW,2013-09-22 17:57:00,
2013-09-22 13:02:00,76.8,56.5,29.92,SE,135,0.0,4.0,49,0.00,,,0.00,WUHU216HW,2013-09-22 18:02:00,
2013-09-22 13:07:00,77.5,56.2,29.91,SSW,203,7.1,7.1,48,0.00,,,0.00,WUHU216HW,2013-09-22 18:07:00,
2013-09-22 13:12:00,77.7,56.4,29.91,South,180,2.0,7.1,48,0.00,,,0.00,WUHU216HW,2013-09-22 18:12:00,
2013-09-22 13:17:00,78.0,56.7,29.91,SSW,203,0.0,7.1,48,0.00,,,0.00,WUHU216HW,2013-09-22 18:17:00,
2013-09-22 13:22:00,78.4,55.8,29.91,South,180,3.1,6.9,46,0.00,,,0.00,WUHU216HW,2013-09-22 18:22:00,
2013-09-22 13:27:00,78.4,55.8,29.91,South,180,3.3,6.9,46,0.00,,,0.00,WUHU216HW,2013-09-22 18:27:00,
2013-09-22 13:32:00,78.6,56.0,29.91,South,180,3.3,3.3,46,0.00,,,0.00,WUHU216HW,2013-09-22 18:32:00,
2013-09-22 13:37:00,78.6,55.4,29.91,SSW,203,5.3,5.3,45,0.00,,,0.00,WUHU216HW,2013-09-22 18:37:00,
2013-09-22 13:42:00,78.6,55.4,29.90,SSE,158,2.2,5.3,45,0.00,,,0.00,WUHU216HW,2013-09-22 18:42:00,
2013-09-22 13:47:00,78.9,55.7,29.90,South,180,5.1,7.3,45,0.00,,,0.00,WUHU216HW,2013-09-22 18:47:00,
2013-09-22 13:52:00,79.3,56.6,29.90,SSE,158,2.9,7.3,46,0.00,,,0.00,WUHU216HW,2013-09-22 18:52:00,
2013-09-22 13:57:00,79.3,56.6,29.89,South,180,1.3,5.1,46,0.00,,,0.00,WUHU216HW,2013-09-22 18:57:00,
2013-09-22 14:02:00,80.2,57.4,29.89,South,180,1.5,10.0,46,0.00,,,0.00,WUHU216HW,2013-09-22 19:02:00,
2013-09-22 14:07:00,80.4,57.6,29.89,WSW,248,0.0,10.0,46,0.00,,,0.00,WUHU216HW,2013-09-22 19:07:00,
2013-09-22 14:12:00,80.9,57.5,29.88,SSE,158,3.3,3.3,45,0.00,,,0.00,WUHU216HW,2013-09-22 19:12:00,
2013-09-22 14:17:00,80.9,56.3,29.88,SSE,158,0.0,3.3,43,0.00,,,0.00,WUHU216HW,2013-09-22 19:17:00,
2013-09-22 14:22:00,81.1,56.4,29.88,SSE,158,6.9,6.9,43,0.00,,,0.00,WUHU216HW,2013-09-22 19:22:00,
2013-09-22 14:27:00,81.3,57.2,29.87,SSE,158,2.9,6.9,44,0.00,,,0.00,WUHU216HW,2013-09-22 19:27:00,
2013-09-22 14:32:00,81.3,56.0,29.88,SSW,203,1.7,6.9,42,0.00,,,0.00,WUHU216HW,2013-09-22 19:32:00,
2013-09-22 14:37:00,81.1,55.8,29.87,SSW,203,9.8,9.8,42,0.00,,,0.00,WUHU216HW,2013-09-22 19:37:00,
2013-09-22 14:42:00,80.7,56.1,29.88,South,180,1.5,9.8,43,0.00,,,0.00,WUHU216HW,2013-09-22 19:42:00,
2013-09-22 14:47:00,81.1,55.8,29.87,SSE,158,2.2,9.8,42,0.00,,,0.00,WUHU216HW,2013-09-22 19:47:00,
2013-09-22 14:52:00,81.1,56.4,29.87,SSE,158,3.1,3.1,43,0.00,,,0.00,WUHU216HW,2013-09-22 19:52:00,
2013-09-22 14:57:00,81.6,56.9,29.87,South,180,5.1,5.1,43,0.00,,,0.00,WUHU216HW,2013-09-22 19:57:00,
2013-09-22 15:02:00,82.0,56.6,29.87,South,180,2.9,5.1,42,0.00,,,0.00,WUHU216HW,2013-09-22 20:02:00,
2013-09-22 15:07:00,82.2,56.8,29.87,SSE,158,1.1,5.1,42,0.00,,,0.00,WUHU216HW,2013-09-22 20:07:00,
2013-09-22 15:12:00,82.2,56.8,29.87,SSW,203,2.4,3.5,42,0.00,,,0.00,WUHU216HW,2013-09-22 20:12:00,
2013-09-22 15:18:00,82.4,56.9,29.87,SSE,158,4.0,4.0,42,0.00,,,0.00,WUHU216HW,2013-09-22 20:18:00,
2013-09-22 15:23:00,82.2,56.2,29.86,West,270,0.0,4.0,41,0.00,,,0.00,WUHU216HW,2013-09-22 20:23:00,
2013-09-22 15:28:00,82.2,56.2,29.86,West,270,0.0,4.0,41,0.00,,,0.00,WUHU216HW,2013-09-22 20:28:00,
2013-09-22 15:33:00,82.5,56.5,29.86,South,180,4.6,4.6,41,0.00,,,0.00,WUHU216HW,2013-09-22 20:33:00,
2013-09-22 15:38:00,82.5,56.5,29.86,SE,135,0.0,4.6,41,0.00,,,0.00,WUHU216HW,2013-09-22 20:38:00,
2013-09-22 15:43:00,82.5,56.5,29.86,SE,135,2.0,4.0,41,0.00,,,0.00,WUHU216HW,2013-09-22 20:43:00,
2013-09-22 15:48:00,82.5,56.5,29.86,SSE,158,2.0,4.0,41,0.00,,,0.00,WUHU216HW,2013-09-22 20:48:00,
2013-09-22 15:53:00,82.9,56.8,29.85,SE,135,2.4,2.4,41,0.00,,,0.00,WUHU216HW,2013-09-22 20:53:00,
2013-09-22 15:58:00,83.1,57.0,29.85,SSE,158,4.9,4.9,41,0.00,,,0.00,WUHU216HW,2013-09-22 20:58:00,
2013-09-22 16:03:00,82.9,56.2,29.85,SSW,203,6.2,6.2,40,0.00,,,0.00,WUHU216HW,2013-09-22 21:03:00,
2013-09-22 16:08:00,82.5,56.5,29.85,ESE,113,1.7,6.2,41,0.00,,,0.00,WUHU216HW,2013-09-22 21:08:00,
2013-09-22 16:13:00,82.5,55.9,29.85,ESE,113,0.0,5.5,40,0.00,,,0.00,WUHU216HW,2013-09-22 21:13:00,
2013-09-22 16:18:00,82.2,55.5,29.85,East,90,1.5,4.9,40,0.00,,,0.00,WUHU216HW,2013-09-22 21:18:00,
2013-09-22 16:23:00,82.2,55.5,29.85,SW,225,2.9,4.9,40,0.00,,,0.00,WUHU216HW,2013-09-22 21:23:00,
2013-09-22 16:28:00,82.2,56.2,29.85,South,180,0.0,2.9,41,0.00,,,0.00,WUHU216HW,2013-09-22 21:28:00,
2013-09-22 16:34:00,82.2,56.2,29.84,NNE,23,0.0,2.9,41,0.00,,,0.00,WUHU216HW,2013-09-22 21:34:00,
2013-09-22 16:39:00,82.7,56.0,29.84,East,90,0.0,2.4,40,0.00,,,0.00,WUHU216HW,2013-09-22 21:39:00,
2013-09-22 16:44:00,83.1,56.4,29.84,ESE,113,0.0,0.0,40,0.00,,,0.00,WUHU216HW,2013-09-22 21:44:00,
2013-09-22 16:49:00,83.1,56.4,29.84,South,180,0.0,2.0,40,0.00,,,0.00,WUHU216HW,2013-09-22 21:49:00,
2013-09-22 16:54:00,83.1,56.4,29.85,South,180,4.4,4.9,40,0.00,,,0.00,WUHU216HW,2013-09-22 21:54:00,
2013-09-22 16:59:00,83.1,56.4,29.84,WSW,248,0.0,5.5,40,0.00,,,0.00,WUHU216HW,2013-09-22 21:59:00,
2013-09-22 17:04:00,82.5,55.1,29.84,SSW,203,1.7,5.5,39,0.00,,,0.00,WUHU216HW,2013-09-22 22:04:00,
2013-09-22 17:09:00,82.5,55.9,29.84,SSE,158,5.8,5.8,40,0.00,,,0.00,WUHU216HW,2013-09-22 22:09:00,
2013-09-22 17:14:00,82.2,55.5,29.84,South,180,1.7,5.8,40,0.00,,,0.00,WUHU216HW,2013-09-22 22:14:00,
2013-09-22 17:19:00,82.0,55.4,29.84,SSE,158,6.0,6.0,40,0.00,,,0.00,WUHU216HW,2013-09-22 22:19:00,
2013-09-22 17:24:00,81.5,55.5,29.84,NE,45,1.5,6.0,41,0.00,,,0.00,WUHU216HW,2013-09-22 22:24:00,
2013-09-22 17:29:00,81.5,55.5,29.84,ESE,113,0.0,6.0,41,0.00,,,0.00,WUHU216HW,2013-09-22 22:29:00,
2013-09-22 17:35:00,81.3,55.4,29.85,SSW,203,1.1,1.5,41,0.00,,,0.00,WUHU216HW,2013-09-22 22:35:00,
2013-09-22 17:40:00,81.3,54.7,29.85,ENE,68,0.0,2.4,40,0.00,,,0.00,WUHU216HW,2013-09-22 22:40:00,
2013-09-22 17:45:00,80.9,54.4,29.85,ENE,68,0.0,2.4,40,0.00,,,0.00,WUHU216HW,2013-09-22 22:45:00,
2013-09-22 17:50:00,80.4,54.5,29.85,ESE,113,0.0,0.0,41,0.00,,,0.00,WUHU216HW,2013-09-22 22:50:00,
2013-09-22 17:55:00,79.7,53.9,29.85,SSE,158,0.0,0.0,41,0.00,,,0.00,WUHU216HW,2013-09-22 22:55:00,
2013-09-22 18:00:00,79.1,53.4,29.85,SE,135,0.0,2.9,41,0.00,,,0.00,WUHU216HW,2013-09-22 23:00:00,
2013-09-22 18:05:00,78.6,52.9,29.85,South,180,0.0,2.9,41,0.00,,,0.00,WUHU216HW,2013-09-22 23:05:00,
2013-09-22 18:10:00,77.7,52.7,29.85,South,180,0.0,1.3,42,0.00,,,0.00,WUHU216HW,2013-09-22 23:10:00,
2013-09-22 18:16:00,77.0,52.7,29.85,East,90,0.0,1.3,43,0.00,,,0.00,WUHU216HW,2013-09-22 23:16:00,
2013-09-22 18:21:00,75.9,51.7,29.85,SSE,158,0.0,0.0,43,0.00,,,0.00,WUHU216HW,2013-09-22 23:21:00,
2013-09-22 18:26:00,75.5,52.0,29.85,SSE,158,0.0,0.0,44,0.00,,,0.00,WUHU216HW,2013-09-22 23:26:00,
2013-09-22 18:31:00,75.0,52.1,29.85,East,90,0.0,0.0,45,0.00,,,0.00,WUHU216HW,2013-09-22 23:31:00,
2013-09-22 18:36:00,74.3,52.0,29.85,SSE,158,0.0,0.0,46,0.00,,,0.00,WUHU216HW,2013-09-22 23:36:00,
2013-09-22 18:41:00,73.7,51.5,29.85,East,90,0.0,0.0,46,0.00,,,0.00,WUHU216HW,2013-09-22 23:41:00,
2013-09-22 18:46:00,73.2,51.6,29.85,East,90,0.0,0.0,47,0.00,,,0.00,WUHU216HW,2013-09-22 23:46:00,
2013-09-22 18:51:00,72.6,51.7,29.85,SSE,158,0.0,0.0,48,0.00,,,0.00,WUHU216HW,2013-09-22 23:51:00,
2013-09-22 18:56:00,72.1,51.2,29.85,South,180,0.0,0.0,48,0.00,,,0.00,WUHU216HW,2013-09-22 23:56:00,
2013-09-22 19:01:00,71.4,51.2,29.85,ESE,113,0.0,0.0,49,0.00,,,0.00,WUHU216HW,2013-09-23 00:01:00,
2013-09-22 19:06:00,70.8,51.3,29.85,ESE,113,0.0,0.0,50,0.00,,,0.00,WUHU216HW,2013-09-23 00:06:00,
2013-09-22 19:11:00,70.3,51.3,29.85,ESE,113,0.0,0.0,51,0.00,,,0.00,WUHU216HW,2013-09-23 00:11:00,
2013-09-22 19:16:00,69.8,50.8,29.85,SSE,158,0.0,0.0,51,0.00,,,0.00,WUHU216HW,2013-09-23 00:16:00,
2013-09-22 19:21:00,69.0,50.7,29.86,SE,135,0.0,0.0,52,0.00,,,0.00,WUHU216HW,2013-09-23 00:21:00,
2013-09-22 19:26:00,68.7,50.3,29.86,ESE,113,0.0,0.0,52,0.00,,,0.00,WUHU216HW,2013-09-23 00:26:00,
2013-09-22 19:32:00,67.8,50.0,29.86,ESE,113,0.0,0.0,53,0.00,,,0.00,WUHU216HW,2013-09-23 00:32:00,
2013-09-22 19:37:00,67.6,50.3,29.86,ESE,113,0.0,0.0,54,0.00,,,0.00,WUHU216HW,2013-09-23 00:37:00,
2013-09-22 19:42:00,66.9,50.1,29.86,North,0,0.0,0.0,55,0.00,,,0.00,WUHU216HW,2013-09-23 00:42:00,
2013-09-22 19:47:00,66.7,50.0,29.86,ESE,113,0.0,0.0,55,0.00,,,0.00,WUHU216HW,2013-09-23 00:47:00,
2013-09-22 19:53:00,66.0,49.8,29.86,North,0,0.0,0.0,56,0.00,,,0.00,WUHU216HW,2013-09-23 00:53:00,
2013-09-22 19:58:00,65.8,49.6,29.86,NNE,23,0.0,0.0,56,0.00,,,0.00,WUHU216HW,2013-09-23 00:58:00,
2013-09-22 20:03:00,65.4,49.3,29.86,SE,135,0.0,0.0,56,0.00,,,0.00,WUHU216HW,2013-09-23 01:03:00,
2013-09-22 20:08:00,64.9,49.2,29.86,ENE,68,0.0,0.0,57,0.00,,,0.00,WUHU216HW,2013-09-23 01:08:00,
2013-09-22 20:13:00,64.7,49.0,29.87,ESE,113,0.0,0.0,57,0.00,,,0.00,WUHU216HW,2013-09-23 01:13:00,
2013-09-22 20:18:00,64.5,48.9,29.87,ESE,113,0.0,0.0,57,0.00,,,0.00,WUHU216HW,2013-09-23 01:18:00,
2013-09-22 20:23:00,64.0,48.3,29.87,ESE,113,0.0,0.0,57,0.00,,,0.00,WUHU216HW,2013-09-23 01:23:00,
2013-09-22 20:29:00,63.8,48.2,29.86,ESE,113,0.0,0.0,57,0.00,,,0.00,WUHU216HW,2013-09-23 01:29:00,
2013-09-22 20:34:00,63.5,48.3,29.87,ESE,113,0.0,0.0,58,0.00,,,0.00,WUHU216HW,2013-09-23 01:34:00,
2013-09-22 20:39:00,63.3,48.2,29.87,SE,135,0.0,0.0,58,0.00,,,0.00,WUHU216HW,2013-09-23 01:39:00,
2013-09-22 20:44:00,63.1,48.0,29.86,ESE,113,0.0,0.0,58,0.00,,,0.00,WUHU216HW,2013-09-23 01:44:00,
2013-09-22 20:49:00,63.1,48.0,29.86,NE,45,0.0,0.0,58,0.00,,,0.00,WUHU216HW,2013-09-23 01:49:00,
2013-09-22 20:54:00,62.9,48.3,29.87,SE,135,0.0,0.0,59,0.00,,,0.00,WUHU216HW,2013-09-23 01:54:00,
2013-09-22 20:59:00,62.7,48.2,29.87,NE,45,0.0,0.0,59,0.00,,,0.00,WUHU216HW,2013-09-23 01:59:00,
2013-09-22 21:04:00,62.6,48.0,29.87,NE,45,0.0,0.0,59,0.00,,,0.00,WUHU216HW,2013-09-23 02:04:00,
2013-09-22 21:09:00,62.4,48.3,29.87,NE,45,0.0,0.0,60,0.00,,,0.00,WUHU216HW,2013-09-23 02:09:00,
2013-09-22 21:14:00,62.4,48.3,29.87,ENE,68,1.1,1.1,60,0.00,,,0.00,WUHU216HW,2013-09-23 02:14:00,
2013-09-22 21:19:00,62.2,48.2,29.87,East,90,0.0,1.1,60,0.00,,,0.00,WUHU216HW,2013-09-23 02:19:00,
2013-09-22 21:24:00,61.8,47.9,29.87,SSE,158,0.0,1.1,60,0.00,,,0.00,WUHU216HW,2013-09-23 02:24:00,
2013-09-22 21:29:00,61.8,48.3,29.88,NE,45,0.0,1.1,61,0.00,,,0.00,WUHU216HW,2013-09-23 02:29:00,
2013-09-22 21:34:00,61.5,48.4,29.88,SSE,158,0.0,1.1,62,0.00,,,0.00,WUHU216HW,2013-09-23 02:34:00,
2013-09-22 21:39:00,61.5,48.4,29.88,ENE,68,0.0,0.0,62,0.00,,,0.00,WUHU216HW,2013-09-23 02:39:00,
2013-09-22 21:44:00,61.1,48.0,29.88,ESE,113,0.0,0.0,62,0.00,,,0.00,WUHU216HW,2013-09-23 02:44:00,
2013-09-22 21:49:00,60.9,48.3,29.88,SE,135,0.0,0.0,63,0.00,,,0.00,WUHU216HW,2013-09-23 02:49:00,
2013-09-22 21:54:00,60.8,48.1,29.88,SSE,158,0.0,0.0,63,0.00,,,0.00,WUHU216HW,2013-09-23 02:54:00,
2013-09-22 21:59:00,60.6,48.0,29.88,ENE,68,0.0,0.0,63,0.00,,,0.00,WUHU216HW,2013-09-23 02:59:00,
2013-09-22 22:04:00,60.4,48.2,29.88,SE,135,0.0,0.0,64,0.00,,,0.00,WUHU216HW,2013-09-23 03:04:00,
2013-09-22 22:10:00,60.0,48.2,29.88,East,90,0.0,1.1,65,0.00,,,0.00,WUHU216HW,2013-09-23 03:10:00,
2013-09-22 22:15:00,59.7,47.9,29.89,NE,45,0.0,1.1,65,0.00,,,0.00,WUHU216HW,2013-09-23 03:15:00,
2013-09-22 22:20:00,59.5,47.7,29.88,East,90,0.0,0.0,65,0.00,,,0.00,WUHU216HW,2013-09-23 03:20:00,
2013-09-22 22:25:00,59.3,47.9,29.89,East,90,0.0,0.0,66,0.00,,,0.00,WUHU216HW,2013-09-23 03:25:00,
2013-09-22 22:30:00,59.0,47.6,29.89,ESE,113,1.1,1.1,66,0.00,,,0.00,WUHU216HW,2013-09-23 03:30:00,
2013-09-22 22:35:00,58.8,47.8,29.89,NNE,23,0.0,1.1,67,0.00,,,0.00,WUHU216HW,2013-09-23 03:35:00,
2013-09-22 22:40:00,58.8,47.8,29.89,SE,135,0.0,0.0,67,0.00,,,0.00,WUHU216HW,2013-09-23 03:40:00,
2013-09-22 22:45:00,58.8,48.2,29.89,East,90,0.0,1.7,68,0.00,,,0.00,WUHU216HW,2013-09-23 03:45:00,
2013-09-22 22:50:00,58.4,47.9,29.89,ESE,113,0.0,1.7,68,0.00,,,0.00,WUHU216HW,2013-09-23 03:50:00,
2013-09-22 22:55:00,58.2,47.7,29.89,East,90,0.0,0.0,68,0.00,,,0.00,WUHU216HW,2013-09-23 03:55:00,
2013-09-22 23:00:00,57.9,47.7,29.89,East,90,0.0,0.0,69,0.00,,,0.00,WUHU216HW,2013-09-23 04:00:00,
2013-09-22 23:01:00,57.9,47.7,29.89,East,90,0.0,0.0,69,0.00,,,0.00,WUHU216HW,2013-09-23 04:01:00,
2013-09-22 23:06:00,57.7,47.6,29.89,ENE,68,0.0,0.0,69,0.00,,,0.00,WUHU216HW,2013-09-23 04:06:00,
2013-09-22 23:11:00,57.5,47.8,29.89,ESE,113,0.0,0.0,70,0.00,,,0.00,WUHU216HW,2013-09-23 04:11:00,
2013-09-22 23:16:00,57.3,47.6,29.89,ESE,113,0.0,0.0,70,0.00,,,0.00,WUHU216HW,2013-09-23 04:16:00,
2013-09-22 23:21:00,57.2,47.4,29.90,ESE,113,0.0,0.0,70,0.00,,,0.00,WUHU216HW,2013-09-23 04:21:00,
2013-09-22 23:26:00,57.0,47.6,29.89,East,90,0.0,0.0,71,0.00,,,0.00,WUHU216HW,2013-09-23 04:26:00,
2013-09-22 23:31:00,56.8,47.4,29.90,ESE,113,0.0,0.0,71,0.00,,,0.00,WUHU216HW,2013-09-23 04:31:00,
2013-09-22 23:36:00,56.8,47.8,29.90,SSE,158,0.0,0.0,72,0.00,,,0.00,WUHU216HW,2013-09-23 04:36:00,
2013-09-22 23:41:00,56.8,47.8,29.90,SW,225,0.0,0.0,72,0.00,,,0.00,WUHU216HW,2013-09-23 04:41:00,
2013-09-22 23:46:00,56.4,47.8,29.90,ENE,68,0.0,0.0,73,0.00,,,0.00,WUHU216HW,2013-09-23 04:46:00,
2013-09-22 23:51:00,56.4,47.8,29.90,ESE,113,0.0,0.0,73,0.00,,,0.00,WUHU216HW,2013-09-23 04:51:00,
2013-09-22 23:56:00,56.4,47.8,29.90,ESE,113,0.0,0.0,73,0.00,,,0.00,WUHU216HW,2013-09-23 04:56:00,